{"data":{"norad_id":48223,"epoch":"2026-05-25T03:49:58.156032Z","epoch_age_seconds":64857,"freshness":"FRESH","line1":"1 48223U 21031P   26145.15970088  .00000138  00000+0  33666-3 0  9990","line2":"2 48223  87.8938 294.2893 0001864 106.5744 253.5591 13.14503126245352","mean_motion":13.14503126,"eccentricity":0.0001864,"inclination_deg":87.8938,"raan_deg":294.2893,"arg_perigee_deg":106.5744,"mean_anomaly_deg":253.5591,"bstar":0.00033666,"rev_number":24535,"period_min":109.54709589637,"perigee_km":1204.3754569303,"apogee_km":1207.2027445807,"semimajor_km":7583.9261007555,"source":"CELESTRAK","updated_at":"2026-05-25T13:38:22.435626Z"}}